#timestamp,LO_Frequency,Hit,StdDev 
1623711615.7,286047001.1,N
1623711635.6,286047000.7,N
1623711655.4,286046998.4,N
1623711675.3,286046998.2,N
1623711695.1,286046998.8,N
1623711696.0,286046998.8,N
1623711715.8,286046996.6,N
1623711735.7,286046996.5,N
1623711755.5,286047001.1,N
1623711775.4,286046998.8,N
1623711795.2,286046999.4,N
1623711815.0,286046996.9,N
1623711815.9,286046996.9,N
1623711835.8,286046999.4,N
1623711855.6,286047001.2,N
1623711875.4,286047000.8,N
1623711895.3,286046998.2,N
1623711915.1,286046998.5,N
1623711935.9,286046998.5,N
1623711955.7,286047000.9,N
1623711975.5,286047000.6,N
1623711995.4,286047000.9,N
1623712015.2,286047000.9,N
1623712035.0,286047002.8,N
1623712035.9,286047002.8,N
1623712055.8,286047000.4,N
1623712075.6,286047002.0,N
1623712095.5,286047002.1,N
1623712115.3,286047002.2,N
1623712135.1,286047000.0,N
1623712155.9,286047000.2,N
1623712175.7,286047002.2,N
1623712195.5,286047004.4,N
1623712215.4,286047003.7,N
1623712235.2,286047004.3,N
1623712255.1,286047003.5,N
1623712256.0,286047003.5,N
1623712275.8,286047005.7,N
1623712295.6,286047003.7,N
1623712315.5,286047005.4,N
1623712335.3,286047002.9,N
1623712355.1,286047002.9,N
1623712375.9,286047003.5,N
1623712395.7,286047004.2,N
1623712415.6,286047004.0,N
1623712435.4,286046999.7,N
1623712455.2,286046998.2,N
1623712475.1,286046998.8,N
1623712476.0,286046998.8,N
1623712495.8,286047001.1,N
1623712515.6,286047000.8,N
1623712535.5,286046998.2,N
1623712555.3,286046998.7,N
1623712575.2,286046999.5,N
1623712595.9,286046997.4,N
1623712615.7,286046997.8,N
1623712635.6,286046996.5,N
1623712655.4,286046997.7,N
1623712675.2,286046997.3,N
1623712695.1,286046997.5,N
1623712696.0,286046997.5,N
1623712715.8,286046997.5,N
1623712735.7,286046995.3,N
1623712755.5,286046995.4,N
1623712775.3,286046995.2,N
1623712795.2,286046996.2,N
1623712815.0,286046996.4,N
1623712815.9,286046996.4,N
1623712835.7,286046996.4,N
1623712855.6,286046993.9,N
1623712875.4,286046992.3,N
1623712895.3,286046992.0,N
1623712915.1,286046993.7,N
1623712916.0,286046993.7,N
1623712935.8,286046994.5,N
1623712955.7,286046996.3,N
1623712975.5,286046996.2,N
1623712995.3,286046998.0,N
1623713015.2,286046995.9,N
1623713035.0,286046993.8,N
1623713035.9,286046993.8,Y
1623713055.8,286046996.7,P
1623713075.6,286046998.9,P
1623713095.4,286047001.2,N
1623713115.3,286046998.6,N
1623713135.1,286047001.1,N
1623713155.9,286047000.7,N
1623713175.7,286046998.5,N
1623713195.5,286046998.8,N
1623713215.4,286046999.6,N
1623713235.2,286046996.8,N
1623713255.1,286046997.7,N
1623713256.0,286046997.7,N
1623713275.8,286046995.2,Y
1623713295.6,286046999.6,P
1623713315.5,286046997.4,P
1623713335.3,286046997.6,N
1623713355.2,286046997.5,N
1623713375.9,286046995.6,Y
1623713395.7,286046997.5,P
1623713415.6,286046997.5,P
1623713435.4,286046994.9,P
1623713455.3,286046995.4,Y
1623713475.1,286046997.8,P
1623713476.0,286046997.8,P
1623713495.8,286046995.0,P
1623713515.7,286046997.6,N
1623713535.5,286046999.1,N
1623713555.3,286047000.4,N
1623713575.2,286047002.6,N
1623713595.0,286047002.8,N
1623713595.9,286047002.8,N
1623713615.8,286047002.1,N
1623713635.6,286047001.6,N
1623713655.4,286047001.8,N
1623713675.3,286047001.7,N
1623713695.1,286047002.0,N
1623713715.9,286047002.3,N
1623713735.7,286047002.3,N
1623713755.5,286047001.7,N
1623713775.4,286047003.2,N
1623713795.2,286047003.2,N
1623713815.0,286047001.5,N
1623713815.9,286047001.5,N
1623713835.8,286046999.8,N
1623713855.6,286047000.0,N
1623713875.5,286047002.1,N
1623713895.3,286047001.5,N
1623713915.1,286047001.5,N
1623713935.9,286047004.0,N
1623713955.7,286047001.6,N
1623713975.5,286047001.5,N
1623713995.4,286047001.5,N
1623714015.2,286047002.1,N
1623714035.0,286047001.3,N
1623714036.0,286047001.3,N
1623714055.8,286047003.6,N
1623714075.6,286047001.3,N
1623714095.5,286047001.4,N
1623714115.3,286046999.8,N
1623714135.1,286047002.6,N
1623714155.9,286046999.7,N
1623714175.7,286047001.9,N
1623714195.6,286047004.1,Y
1623714215.4,286047002.3,P
1623714235.2,286047000.6,N
1623714255.1,286047000.9,N
1623714256.0,286047000.9,N
1623714275.8,286047000.0,N
1623714295.6,286046999.9,N
1623714315.5,286047002.5,Y
1623714335.3,286047000.0,P
1623714355.2,286047000.3,N
1623714375.9,286047000.9,N
1623714395.7,286047002.4,Y
1623714415.6,286047004.4,P
1623714435.4,286047002.2,N
1623714455.2,286047000.1,N
1623714475.1,286047001.0,N
1623714476.0,286047001.0,N
1623714495.8,286046999.4,N
1623714515.7,286046999.2,N
1623714535.5,286046998.5,N
1623714555.4,286047002.8,N
1623714575.2,286047000.8,N
1623714595.0,286047000.0,N
1623714595.9,286047000.0,N
1623714615.8,286046999.7,N
1623714635.6,286047000.1,N
1623714655.4,286047002.1,N
1623714675.3,286047002.8,N
1623714695.1,286047011.9,Y
1623714715.9,286047000.9,P
1623714735.7,286046997.7,P
1623714755.5,286046998.5,N
1623714775.4,286047000.4,N
1623714795.2,286047001.2,N
1623714815.0,286047001.1,N
1623714816.0,286047001.1,N
1623714835.8,286046998.5,N
1623714855.6,286047001.1,N
1623714875.5,286047000.3,N
1623714895.3,286047000.4,N
1623714915.2,286046998.3,N
1623714935.9,286047000.3,N
1623714955.7,286047002.5,N
1623714975.6,286047004.4,Y
1623714995.4,286047004.4,P
1623715015.3,286047003.6,N
1623715035.1,286047002.3,N
1623715055.8,286047002.8,N
1623715075.7,286047002.2,N
1623715095.5,286047001.8,N
1623715115.4,286047004.3,Y
1623715135.2,286046999.7,P
1623715155.0,286047001.2,N
1623715155.9,286047001.2,N
1623715175.8,286047002.0,N
1623715195.6,286047002.8,N
